User: anonymous   Login
Location: Campillo
(40.8621°N, 4.2488°W)
Time: 17:00:08
(UTC+00:00)
Language:

Terra - Orbit

View from above orbital plane
View from above orbital plane
View from above satellite
View from above satellite

Ground track
Ground track

The orbit data is extracted from the following two-line orbital elements,

1 25994U 99068A   21216.15240076  .00000046  00000-0  20075-4 0  9996
2 25994  98.1740 289.6982 0001301  99.2228 290.9413 14.57128739150417
Epoch (UTC): 04 August 2021 03:39:27
Eccentricity: 0.0001301
inclination: 98.1740°
perigee height: 701 km
apogee height: 703 km
right ascension of ascending node: 289.6982°
argument of perigee: 99.2228°
revolutions per day: 14.57128739
mean anomaly at epoch: 290.9413°
orbit number at epoch: 15041

The dashed part of the orbit path shows where the satellite is in the earth's shadow,  

DLR